sat.trackr.live / text

‹ back to catalog

STARLINK-34148

NORAD 64111 · 2025-110R

PAYLOAD ACTIVE UNKNOWN

§ Identity

Operator
Country
US
Launch date
2025-05-23
Launch site
AFWTR
Launch vehicle
Mass (kg)
RCS (m²)

Purposes: comms

External: N2YO · Heavens-Above · Gunter

§ Orbital elements

Epoch: 2026-05-24T22:47:35.438208Z

Period
94.01 min
Inclination
53.1612°
Eccentricity
0.0001084
Mean motion
15.31712978 rev/d
Perigee alt
470.0 km
Apogee alt
471.4 km
Semi-major
6,848.8 km
B*
4.7226e-4
RAAN
32.1599°
Arg perigee
88.0800°
Mean anomaly
272.0325°
Rev number
5,756

§ Raw data

STARLINK-341481 64111U 25110R   26144.94971572  .00014324  00000+0  47226-3 0  99902 64111  53.1612  32.1599 0001084  88.0800 272.0325 15.31712978 57567

JSON: /api/v1/satellites/64111 · /tle

For live sub-satellite position, see the globe view (requires WebGL).

§ Visibility from observer

Set your observer location to see the next 7 days of passes ≥ 10°. The values pass through the URL so the page stays shareable.

No JS? Fill the form by hand. The geolocation button needs JavaScript.